Welcome to the New NWS' Forecast!
Most changes are behind the scenes, but click here for differences you might notice.
Latest weather observations around

Texarkana, Texarkana Regional-Webb Field (KTXK)

Using English Units (Switch to International System of Units)
Date/ Time (CST) Wind (mph) Vis. (mi) Weather Sky Cond. Temp (°F) Rel. Humidity Wind Chill (°F) Heat Index (°F) Pressure Precip. (in)
Air Dwpt 6 hour Altimeter (inHg) Sea level (inHg) 1 hr 3 hr 6 hr
Max Min
Nov 18 01:53 S 13 10 Clear CLR 68 65     90%     29.71 29.69      
Nov 18 00:53 SSW 14 10 Clear CLR 69 65     87%     29.72 29.71      
Nov 17 23:53 SSW 17 10 Clear CLR 69 65     87%     29.74 29.72      
Nov 17 22:53 S 15 10 Clear CLR 70 65     84%     29.75 29.74      
Nov 17 21:53 S 15 10 Clear CLR 70 65     84%     29.76 29.74      
Nov 17 20:53 S 11 10 Cloudy OVC041 72 65     79%   73 29.77 29.76      
Nov 17 19:53 S 13 10 Cloudy OVC045 72 65     79%   73 29.78 29.77      
Nov 17 18:53 S 10 10 Mostly Clear FEW049 72 65     79%   73 29.79 29.78      
Nov 17 17:53 S 8 10 Mostly Cloudy BKN048 72 65     79%   73 29.8 29.78      
Nov 17 16:53 S 8 10 Mostly Cloudy FEW042 BKN050 74 65     74%   74 29.81 29.8      
Nov 17 15:53 S 11 10 Cloudy OVC050 75 65     71%   76 29.83 29.81      
Nov 17 14:53 S 14 10 Cloudy BKN035 OVC049 75 65     71%   76 29.84 29.83      
Nov 17 13:53 S 13 10 Partly Cloudy SCT035 75 65     71%   76 29.86 29.85      
Nov 17 13:38 S 16 10 Partly Cloudy SCT027 SCT039 75 65     71%   76 29.86        
Nov 17 12:53 SSW 14 10 Cloudy OVC025 72 65     79%   73 29.9 29.89      
Nov 17 11:53 SSW 15 10 Cloudy OVC020 71 64     79%   72 29.94 29.93      
Nov 17 10:53 SSW 15 10 Cloudy OVC016 70 64     81%     29.97 29.96      
Nov 17 10:23 SSW 11 10 Mostly Cloudy BKN016 BKN021 71 64     79%   72 29.98        
Nov 17 09:53 S 16 10 Partly Cloudy SCT014 70 64     81%     30 29.99      
Nov 17 09:28 SSW 14 10 Mostly Cloudy BKN014 69 63     81%     30.01        
Nov 17 08:53 S 13 10 Mostly Clear FEW008 66 63     90%     30.01 30      
Nov 17 08:43 S 11 10 Mostly Clear FEW008 FEW022 65 62     90%     30.01        
Nov 17 08:02 S 10 9 Cloudy SCT008 OVC020 63 61     93%     30.01        
Nov 17 07:53 S 10 9 Cloudy BKN008 OVC020 62 60     93%     30.02 30.01      
Nov 17 06:53 S 7 10 Cloudy OVC008 61 60     97%     30.03 30.02      
Nov 17 06:28 S 7 10 Cloudy BKN010 BKN042 OVC080 61 59     93%     30.02        
Nov 17 06:21 SSE 8 10 Cloudy SCT011 BKN020 OVC070 61 59     93%     30.02        
Nov 17 06:12 SSE 8 10 Cloudy SCT019 BKN042 OVC075 60 59     96%     30.02        
Nov 17 05:53 SSE 7 10 Cloudy BKN021 BKN035 OVC085 61 59     93%     30.01 30.01      
Nov 17 04:53 SSE 6 9 Cloudy BKN038 BKN045 OVC080 60 58     93%     30.03 30.02      
Nov 17 03:53 SE 9 9 Cloudy BKN039 BKN050 OVC085 59 58     96%     30.03 30.02      
Nov 17 02:53 SE 7 8 Cloudy BKN045 BKN070 OVC080 59 58     96%     30.04 30.03      
Nov 17 02:07 ESE 6 8 Mostly Cloudy FEW008 FEW036 BKN080 58 57     97%     30.05        
Nov 17 01:53 SE 6 8 Mostly Cloudy FEW038 BKN080 58 57     97%     30.05 30.04      
Nov 17 00:53 E 3 8 Cloudy SCT040 BKN048 OVC080 57 56     96%     30.06 30.05      
Nov 16 23:53 Calm 9 Cloudy SCT046 OVC075 57 56     96%     30.08 30.06      
Nov 16 22:53 E 5 10 Cloudy OVC039 56 54     93%     30.08 30.07      
Nov 16 21:53 E 6 10 Mostly Cloudy FEW027 BKN042 55 53     93%     30.09 30.09      
Nov 16 20:53 ENE 6 10 Cloudy SCT032 BKN041 OVC065 56 52     87%     30.1 30.09      
Nov 16 20:27 ENE 6 10 Cloudy OVC030 56 52     87%     30.1        
Nov 16 19:53 E 6 10 Cloudy OVC029 56 52     87%     30.09 30.09      
Nov 16 18:53 ENE 5 10 Mostly Cloudy SCT035 BKN085 57 53     87%     30.11 30.1      
Nov 16 17:53 E 5 10 Mostly Cloudy BKN048 58 53     84%     30.09 30.08      
Nov 16 17:38 E 3 10 Mostly Cloudy FEW016 SCT035 BKN047 58 54     87%     30.09        
Nov 16 16:53 E 3 10 Cloudy OVC018 60 53     78%     30.09 30.08      
Nov 16 14:53 ESE 5 10 Cloudy OVC017 61 53     75%     30.09 30.09      
Nov 16 13:53 ENE 7 10 Cloudy OVC018 61 51     70%     30.1 30.09      
Nov 16 12:53 ENE 8 10 Cloudy OVC019 60 50     69%     30.13 30.12      
Nov 16 12:05 NE 11 10 Cloudy BKN015 OVC022 60 49     67%     30.15        
Nov 16 11:53 ENE 8 10 Cloudy BKN014 OVC022 60 50     69%     30.15 30.15      
Nov 16 10:53 NE 8 10 Cloudy OVC014 59 51     75%     30.18 30.17      
Nov 16 09:53 ENE 9 10 Cloudy OVC012 59 54     83%     30.18 30.17      
Nov 16 08:53 ENE 6 9 Cloudy OVC011 59 57     93%     30.17 30.16      
Nov 16 08:35 NE 9 8 Cloudy BKN010 OVC025 60 58     93%     30.17        
Nov 16 07:53 ENE 7 7 Cloudy FEW009 BKN028 OVC050 60 58     93%     30.16 30.15      
Nov 16 07:49 ENE 7 7 Cloudy FEW009 BKN028 OVC050 61 57     88%     30.16        
Nov 16 07:36 E 6 7 Cloudy SCT028 OVC050 60 58     93%     30.15        
Nov 16 06:53 ENE 6 9 Cloudy FEW010 OVC028 60 58     93%     30.14 30.14      
Nov 16 05:53 ENE 5 9 Cloudy SCT022 OVC027 60 58     93%     30.12 30.11      
Nov 16 04:53 ENE 6 8 Cloudy OVC021 61 59     93%     30.12 30.11      
Nov 16 03:53 ENE 6 8 Cloudy OVC024 61 59     93%     30.12 30.11      
Nov 16 03:17 ENE 5 9 Cloudy SCT010 OVC026 61 60     97%     30.12        
Nov 16 02:53 ENE 6 9 Cloudy BKN011 OVC025 62 60     93%     30.12 30.11      
Nov 16 01:53 ENE 6 9 Cloudy BKN013 OVC018 62 60     93%     30.11 30.1      
Nov 16 01:09 ENE 6 8 Cloudy OVC010 63 61     93%     30.11        
Nov 16 01:01 ENE 7 8 Cloudy BKN008 OVC012 63 61     93%     30.12        
Nov 16 00:53 NE 5 8 Cloudy OVC010 63 61     93%     30.12 30.11      
Nov 16 00:46 NE 6 8 Cloudy OVC010 63 61     93%     30.12        
Nov 16 00:22 ENE 6 8 Cloudy OVC009 63 61     93%     30.11        
Nov 15 23:53 NE 3 8 Cloudy OVC010 63 62     97%     30.12 30.1      
Nov 15 23:27 ENE 6 8 Cloudy BKN011 OVC022 63 62     97%     30.11        
Nov 15 22:53 ENE 5 8 Cloudy OVC023 64 62     93%     30.11 30.09      
Nov 15 21:53 ENE 5 9 Cloudy OVC024 64 62     93%     30.1 30.09      
Nov 15 20:53 NNE 6 8 Cloudy FEW009 OVC025 64 62     93%     30.1 30.09      
Nov 15 19:53 NNE 7 9 Cloudy OVC026 65 62     90%     30.09 30.08      
Nov 15 18:53 N 9 10 Cloudy OVC027 67 62     84%     30.07 30.06      
Nov 15 17:53 Calm 10 Cloudy OVC028 66 63     90%     30.05 30.04      
Nov 15 17:29 Calm 10 Cloudy OVC029 67 63     87%     30.05        
Nov 15 16:53 Calm 10 Cloudy OVC030 68 63     84%     30.04 30.03      
Nov 15 15:53 SW 3 10 Cloudy FEW060 OVC075 70 61     73%     30.02 30.01      
Nov 15 14:53 SSW 5 10 Cloudy BKN032 OVC070 71 60     68%   71 30.02 30      
Nov 15 13:53 SSW 6 10 Cloudy BKN031 OVC049 71 60     68%   71 30.02 30.01      
Nov 15 12:53 WSW 14 10 Cloudy OVC045 71 58     63%   71 30.03 30.02      
Nov 15 11:53 SW 8 10 Clear CLR 71 59     66%   71 30.04 30.03      
Nov 15 10:53 SW 10 10 Clear CLR 68 57     68%     30.06 30.06      
Nov 15 09:53 S 7 10 Cloudy FEW055 SCT075 OVC100 63 57     81%     30.08 30.07      
Nov 15 08:53 S 6 10 Cloudy SCT055 OVC090 62 56     80%     30.07 30.06      
Nov 15 07:53 S 7 10 Cloudy FEW055 OVC085 61 55     81%     30.05 30.04      
Nov 15 06:53 SSW 8 10 Cloudy OVC080 61 55     81%     30.02 30.01      
Nov 15 05:53 S 11 10 Cloudy OVC080 61 54     78%     30 29.99      
Nov 15 04:53 S 9 10 Cloudy OVC080 60 54     80%     30 29.99      
Nov 15 03:53 S 8 10 Cloudy OVC075 60 52     75%     30 29.99      
Nov 15 02:53 S 8 10 Cloudy OVC075 60 52     75%     30.01 30      
Jun 12 06:28 SE 5 8 Cloudy SCT008 OVC028 74 74     100%   76 29.98        
Jun 11 20:53 SSE 8 10 Mostly Cloudy FEW043 BKN060 79 73     82%   82 29.96 29.94      
Jun 11 10:53 S 9 10 Clear CLR 82 67     60%   85 30.01 29.99      
Jun 11 03:53 S 8 10 Clear CLR 72 69     91%   73 29.96 29.94      
Jun 10 20:53 SE 5 10 Clear CLR 75 65     71%   76 29.91 29.9      
Jun 10 18:53 SSE 9 10 Clear CLR 82 62     51%   83 29.91 29.89      
Jun 10 14:53 S 11 10 Mostly Clear FEW048 83 64     53%   84 29.95 29.93      
Jun 09 18:53 ESE 3 10 Mostly Clear FEW055 79 61     54%   79 29.89 29.87      
Jun 06 06:15 NNE 5 10 Partly Cloudy FEW008 SCT023 69 69     100%     29.81        
Jun 06 02:32 NNE 3 10 Cloudy SCT010 OVC016 70 70     100%     29.8        
Jun 05 20:22 ENE 6 10 Mostly Cloudy SCT016 BKN022 BKN030 74 72     94%   75 29.76        
Jun 05 17:53 N 10 10 Mostly Clear FEW036 82 70     67%   86 29.72 29.71